[[{"header":{"parameterUnit":"m.s-1","parameterCategory":1,"la1":30.2992,"la2":30.254,"lo1":-89.0895,"lo2":-89.0443,"dy":0.0025,"dx":0.0025,"nx":19,"ny":19,"refTime":"2026-05-15T09:00:00:Z","depth":0,"parameterNumber":2,"parameterNumberName":"U-component_of_WINDS"},"data":[0,0,0,-2.4291,-2.4291,-2.43,-2.43,-2.4328,-2.4329,0,0,0,0,0,0,0,0,0,0,0,-2.4298,-2.4298,-2.4291,-2.4291,-2.43,-2.43,-2.4328,-2.4329,0,0,0,0,0,0,0,0,0,0,0,-2.4297,-2.4298,-2.4299,-2.4291,-2.43,-2.43,-2.4328,-2.4316,0,0,0,0,0,0,0,0,0,0,-2.4304,-2.4319,-2.4298,-2.4299,-2.4291,-2.43,-2.43,-2.4315,-2.4316,-2.4332,0,-2.4347,0,-2.4338,-2.4332,-2.4332,0,0,0,-2.4284,-2.4318,-2.4312,-2.4299,-2.4291,-2.43,-2.4294,-2.4315,-2.4317,-2.4334,-2.4347,-2.4348,-2.4339,-2.4332,-2.4332,-2.4442,-2.4443,0,0,-2.4284,-2.4304,-2.4311,-2.4314,-2.4312,-2.4294,-2.4294,-2.4316,-2.4332,-2.4347,-2.4348,-2.4339,-2.4332,-2.4333,-2.4442,-2.4443,0,0,0,-2.4287,-2.4304,-2.4297,-2.4313,-2.4313,-2.4294,-2.4295,-2.4331,-2.4327,-2.4348,-2.434,-2.4333,-2.4333,-2.4441,-2.4442,-2.4502,0,0,0,-2.4286,-2.4306,-2.4297,-2.431,-2.4313,-2.4322,-2.4309,-2.4326,-2.4327,-2.434,-2.4333,-2.4334,-2.444,-2.4441,-2.4498,-2.4526,0,0,0,-2.4294,-2.4307,-2.4311,-2.4311,-2.4315,-2.4321,-2.4318,-2.4325,-2.4323,-2.4332,-2.4334,-2.4439,-2.4441,-2.4495,-2.4521,-2.4561,0,0,0,-2.4307,-2.4364,-2.4313,-2.4373,-2.4316,-2.4359,-2.4318,-2.4349,-2.4365,-2.4333,-2.444,-2.4442,-2.4494,-2.4518,-2.4557,-2.4597,-2.4615,0,0,-2.439,-2.4375,-2.4409,-2.4363,-2.4421,-2.4356,-2.4423,-2.4418,-2.4401,-2.443,-2.4432,-2.45,-2.4521,-2.456,-2.4717,-2.4732,0,0,0,-2.4443,-2.4467,-2.4478,-2.4494,-2.4492,-2.4493,-2.4476,-2.4474,-2.4498,-2.442,-2.4525,-2.4537,-2.456,-2.4577,-2.459,-2.4608,-2.4451,-2.4451,-2.4451,-2.4587,-2.4563,-2.4618,-2.4596,-2.4612,-2.4595,-2.4607,-2.4602,-2.4572,-2.4598,-2.4605,-2.4703,-2.4725,-2.4734,-2.4753,-2.4626,-2.4626,-2.4627,-2.4627,-2.4705,-2.4736,-2.4698,-2.4737,-2.4712,-2.4746,-2.4734,-2.4712,-2.474,-2.4695,-2.4714,-2.4664,-2.4751,-2.4766,-2.4631,-2.463,-2.463,-2.4629,-2.4629,-2.4795,-2.4806,-2.4804,-2.4826,-2.4846,-2.4823,-2.4852,-2.4829,-2.4807,-2.4826,-2.4831,-2.483,-2.4825,-2.4831,-2.4831,-2.4831,-2.4832,-2.4832,-2.4832,-2.4888,-2.4884,-2.4911,-2.4917,-2.4925,-2.4933,-2.492,-2.4928,-2.4931,-2.4911,-2.4911,-2.4879,-2.4765,-2.4736,-2.4837,-2.4836,-2.4836,-2.4835,-2.4835,-2.5012,-2.4981,-2.5022,-2.5031,-2.5037,-2.5059,-2.5031,-2.505,-2.5053,-2.5069,-2.5035,-2.4955,-2.4937,-2.4926,-2.4902,-2.504,-2.504,-2.504,-2.504,-2.5086,-2.5076,-2.5114,-2.513,-2.5143,-2.5122,-2.5172,-2.5164,-2.5151,-2.5152,-2.513,-2.5096,-2.5087,-2.5074,-2.5061,-2.5037,-2.5207,-2.5207,-2.5207,-2.5161,-2.5152,-2.5197,-2.5183,-2.5187,-2.5192,-2.5238,-2.5259,-2.5238,-2.5213,-2.5152,-2.5145,-2.5091,-2.5075,-2.5045,-2.5025,-2.4981,0,0]},{"header":{"parameterUnit":"m.s-1","parameterCategory":1,"la1":30.2992,"la2":30.254,"lo1":-89.0895,"lo2":-89.0443,"dy":0.0025,"dx":0.0025,"nx":19,"ny":19,"refTime":"2026-05-15T09:00:00:Z","depth":0,"parameterNumber":3,"parameterNumberName":"V-component_of_WINDS"},"data":[0,0,0,3.3855,3.3855,3.387,3.387,3.3881,3.3881,0,0,0,0,0,0,0,0,0,0,0,3.3847,3.3847,3.3855,3.3855,3.387,3.387,3.3881,3.3881,0,0,0,0,0,0,0,0,0,0,0,3.3847,3.3847,3.3847,3.3855,3.387,3.387,3.3881,3.3873,0,0,0,0,0,0,0,0,0,0,3.386,3.3849,3.3847,3.3847,3.3855,3.387,3.387,3.3872,3.3873,3.3872,0,3.387,0,3.3876,3.3881,3.3881,0,0,0,3.3858,3.3848,3.3855,3.3847,3.3855,3.387,3.3864,3.3873,3.3874,3.3873,3.387,3.3871,3.3876,3.3881,3.3881,3.3866,3.3866,0,0,3.3857,3.3847,3.3855,3.3856,3.3854,3.3863,3.3864,3.3873,3.387,3.387,3.3871,3.3876,3.3882,3.3882,3.3867,3.3866,0,0,0,3.3853,3.3847,3.3854,3.3855,3.3858,3.3864,3.3865,3.3869,3.3873,3.3871,3.3876,3.3882,3.3882,3.3867,3.3867,3.3848,0,0,0,3.3853,3.3844,3.3854,3.3848,3.3858,3.3864,3.386,3.3872,3.3873,3.3876,3.3882,3.3882,3.3867,3.3867,3.3849,3.3841,0,0,0,3.3847,3.3844,3.3845,3.3847,3.3853,3.3864,3.3868,3.3873,3.3876,3.3881,3.3882,3.3867,3.3867,3.385,3.3842,3.3834,0,0,0,3.3839,3.3828,3.3844,3.3834,3.3853,3.3853,3.3868,3.3869,3.3871,3.3882,3.3867,3.3867,3.385,3.3843,3.3835,3.3825,3.382,0,0,3.3819,3.3825,3.382,3.3835,3.383,3.3852,3.3843,3.3854,3.3863,3.3865,3.3864,3.3849,3.3842,3.3834,3.3797,3.3793,0,0,0,3.381,3.3806,3.3807,3.3809,3.3818,3.3824,3.3838,3.3842,3.3844,3.3862,3.3844,3.384,3.3836,3.3832,3.3828,3.3825,3.3864,3.3864,3.3864,3.3769,3.3781,3.3773,3.3788,3.379,3.3804,3.3806,3.3814,3.3826,3.3821,3.3822,3.3798,3.3792,3.379,3.3787,3.3818,3.3818,3.3818,3.3818,3.3741,3.3738,3.3754,3.3753,3.3766,3.3764,3.3777,3.3786,3.3786,3.3798,3.3795,3.3808,3.3785,3.3783,3.3816,3.3817,3.3817,3.3817,3.3817,3.3715,3.3716,3.3722,3.3726,3.3728,3.3743,3.3743,3.3755,3.3766,3.3763,3.3764,3.3765,3.3766,3.3763,3.3763,3.3763,3.3763,3.3762,3.3762,3.3686,3.3693,3.3692,3.37,3.3703,3.3709,3.3723,3.3726,3.3733,3.3741,3.3741,3.3753,3.3781,3.3788,3.3761,3.3761,3.3762,3.3762,3.3762,3.3653,3.3663,3.366,3.3664,3.3675,3.3676,3.3691,3.3697,3.3701,3.37,3.3713,3.3732,3.3738,3.3741,3.3746,3.3711,3.3711,3.3711,3.3711,3.3631,3.3636,3.3636,3.3641,3.3646,3.366,3.3657,3.3667,3.368,3.3683,3.369,3.3699,3.3701,3.3706,3.3709,3.3715,3.3672,3.3672,3.3672,3.3612,3.3617,3.3612,3.3626,3.3635,3.3643,3.364,3.3644,3.366,3.367,3.3686,3.3688,3.3701,3.3705,3.3716,3.3721,3.3731,0,0]}]]